EHI
40 39 42 45 49 54 58 56 45 28 19 18 17 13 11 9 7 8 9 8 6 4 2 2 3 1 1 1 1 2 2 2 2 2 2 3 3 3 6 11 12 9 6
38 35 32 32 35 41 45 42 37 26 17 15 14 12 11 9 8 11 12 8 6 5 3 3 3 2 1 1 1 1 1 1 1 2 2 2 3 3 4 7 8 7 5
31 26 19 17 20 26 29 31 37 33 21 16 14 12 11 8 9 14 16 10 6 5 4 4 3 3 2 1 0 0 0 0 0 1 1 1 1 2 2 3 5 5 4
20 17 13 14 18 21 25 39 53 50 36 26 19 15 12 9 10 16 18 14 8 5 4 3 3 3 3 1 0 0 0 0 0 0 0 0 0 1 1 2 3 4 3
13 12 13 18 22 23 32 52 68 65 50 34 25 18 12 9 10 13 14 13 10 5 3 3 3 3 2 1 0 0 0 0 0 0 0 0 0 0 0 1 1 1 1
9 9 12 19 24 28 38 57 73 72 55 37 25 19 14 10 8 7 7 8 7 5 3 2 4 4 2 0 0 0 0 0 0 0 0 0 0 0 0 0 0 0 0
8 9 11 17 25 33 43 58 71 69 52 33 22 17 13 8 5 3 2 3 3 2 2 2 3 3 2 0 0 0 0 0 0 0 0 0 0 0 0 0 0 0 0
6 7 9 14 22 31 42 55 62 56 39 25 18 15 10 6 3 2 1 0 0 0 0 1 1 1 1 0 0 0 0 0 0 0 0 0 0 0 0 0 0 0 0
3 4 6 10 17 27 36 43 44 38 26 16 12 10 8 5 2 1 0 0 0 0 0 0 0 0 0 0 0 0 0 0 0 0 0 0 0 0 0 0 0 0 0
1 1 3 8 16 25 30 29 28 24 18 11 7 6 6 6 4 1 0 0 0 0 0 0 0 0 0 0 0 0 0 0 0 0 0 0 0 0 0 0 0 0 0
0 1 5 12 18 22 23 21 18 15 11 7 5 5 5 4 3 1 0 0 0 0 0 0 0 0 0 0 0 0 0 0 0 0 0 0 0 0 0 0 0 0 0
0 2 8 15 16 14 14 13 11 8 6 5 4 3 3 2 1 0 0 0 0 0 0 0 0 0 0 0 0 0 0 0 0 0 0 0 0 0 0 0 0 0 0
4 8 15 18 14 10 8 7 5 4 3 3 2 1 1 0 0 0 0 0 0 0 0 0 0 0 0 0 0 0 0 0 0 0 0 0 0 0 0 0 0 0 0
10 15 22 21 15 11 8 6 4 3 3 2 1 0 0 0 0 0 0 0 0 0 0 0 0 0 0 0 0 0 0 0 0 0 0 0 0 0 0 0 0 0 0
13 17 23 22 17 12 9 6 3 2 1 1 0 0 0 0 0 0 0 0 0 0 0 0 0 0 0 0 0 0 0 0 0 0 0 0 0 0 0 0 0 0 0
12 13 18 21 19 14 10 5 2 1 0 0 0 0 0 0 0 0 0 0 0 0 0 0 0 0 0 0 0 0 0 0 0 0 0 0 0 0 0 0 0 0 0
6 7 12 19 20 15 10 6 2 0 0 0 0 0 0 0 0 0 0 0 0 0 0 0 0 0 0 0 0 0 0 0 0 0 0 0 0 0 0 0 0 0 0
1 3 7 12 13 11 8 5 2 0 0 0 0 0 0 0 0 0 0 1 2 1 0 0 0 0 0 0 0 0 0 0 0 0 0 0 0 0 0 0 0 0 0
2 2 3 4 5 4 4 4 2 0 0 0 0 0 0 0 0 0 1 2 3 1 0 0 0 0 0 0 0 0 0 0 0 0 0 0 0 0 0 0 0 0 0
5 5 4 7 10 9 9 8 5 3 1 0 0 1 1 1 1 1 3 4 3 1 0 0 0 0 0 0 0 0 0 0 0 0 0 0 0 0 0 0 0 0 0
9 10 13 20 25 25 24 21 14 8 5 2 1 3 4 2 2 3 6 7 4 1 0 0 0 0 0 0 0 0 0 0 0 0 0 0 0 0 0 0 0 0 0
13 17 27 38 41 38 36 31 23 16 10 6 5 7 6 4 3 4 6 7 5 1 0 0 0 0 0 0 0 0 0 0 0 0 0 0 0 0 0 0 0 0 0
20 26 38 48 49 44 39 36 30 23 17 13 12 11 9 7 5 4 3 3 2 1 0 0 0 0 0 0 0 0 0 0 0 0 0 0 0 0 0 0 0 0 0
29 35 44 49 50 46 40 38 34 28 23 19 16 12 9 7 6 4 1 0 2 2 1 0 0 0 0 0 0 0 0 0 0 0 0 0 0 0 0 0 0 0 0
38 41 46 48 46 42 38 35 33 30 24 18 12 7 4 3 4 3 1 1 3 3 1 0 0 0 0 0 0 0 0 0 0 0 0 0 0 0 0 0 0 0 0
43 44 46 46 42 37 32 31 30 29 23 13 5 2 1 1 2 1 0 1 2 2 1 0 0 0 0 0 0 0 0 0 0 0 0 0 0 0 0 0 0 0 0
Wind_Speed
10 9 9 10 9 8 7 6 6 4 2 2 1 1 1 0 1 2 4 2 2 3 3 3 3 3 2 3 4 3 4 4 3 3 4 5 6 6 5 5 4 5 5
10 9 8 8 9 8 7 6 5 5 3 2 1 0 1 1 0 1 2 2 1 1 3 3 3 3 3 3 3 2 2 4 4 3 4 4 5 4 4 3 4 4 3
12 11 9 9 9 9 8 7 6 5 3 2 1 0 0 1 1 0 1 1 1 1 2 3 3 3 4 3 3 2 3 3 4 4 3 3 3 4 3 3 2 2 2
12 12 11 10 9 9 9 7 6 5 3 2 1 2 2 2 1 0 1 1 1 2 2 2 2 3 3 5 5 3 4 4 4 4 3 3 4 3 4 4 4 3 3
12 11 12 10 10 10 9 8 7 5 4 2 1 2 2 2 2 3 2 1 3 3 3 2 1 2 3 4 4 4 4 4 4 4 4 4 4 4 4 5 4 4 3
12 12 11 10 9 8 8 8 8 6 4 3 2 2 2 2 3 4 3 3 2 2 2 1 1 1 3 4 4 4 5 4 5 4 4 4 4 4 3 4 4 4 4
11 11 10 10 9 8 8 7 8 7 5 4 2 1 1 2 4 4 3 2 3 2 3 3 2 2 3 4 4 4 5 5 5 4 4 4 5 4 4 4 5 5 4
11 11 10 9 8 8 7 7 8 6 5 4 3 1 1 3 2 3 3 4 3 3 3 2 3 3 4 5 4 4 5 5 4 6 6 4 5 5 4 4 4 5 5
13 12 11 10 9 7 7 6 7 5 4 2 3 2 3 2 2 3 3 3 3 4 4 4 4 4 4 5 5 4 5 5 5 5 6 5 4 4 5 4 4 4 6
12 12 11 9 8 7 7 6 6 5 3 2 3 3 2 2 2 3 3 3 4 4 4 5 5 5 5 5 5 5 5 6 5 5 6 5 4 5 4 4 4 4 5
11 11 10 9 9 8 8 7 6 5 4 4 3 1 1 2 2 3 4 4 3 4 4 5 5 5 6 6 5 6 6 7 6 6 7 6 6 5 5 4 4 4 4
10 11 11 10 9 8 8 8 7 6 6 5 3 3 3 3 3 4 3 3 4 4 5 5 5 6 7 6 6 6 7 6 6 7 7 7 7 6 5 5 6 5 5
9 10 11 10 9 7 6 6 6 5 5 5 4 4 4 3 3 4 4 4 4 4 5 5 6 6 6 6 6 6 6 6 6 6 7 7 7 7 6 6 6 5 7
8 9 10 9 8 7 6 5 4 4 4 3 3 3 3 3 3 3 4 4 4 5 5 6 6 6 6 7 6 6 6 6 6 6 7 7 7 7 7 6 6 6 6
9 9 9 9 8 7 6 5 5 4 3 2 3 3 3 3 3 4 4 4 5 6 5 5 6 6 7 6 4 4 7 6 6 7 7 8 9 10 8 8 6 5 4
9 10 10 9 9 8 7 6 5 5 5 4 4 3 3 3 4 4 5 5 5 5 5 5 6 7 8 3 2 3 6 7 7 8 8 9 10 12 13 14 13 10 8
8 9 10 9 8 8 7 6 6 5 5 5 5 4 4 4 4 5 5 4 5 5 5 6 6 6 6 6 6 7 5 7 8 9 8 10 11 9 6 8 12 13 16
7 8 9 10 10 9 8 7 7 7 6 6 6 5 5 5 4 4 5 5 4 5 5 6 7 6 7 6 8 8 7 8 9 10 10 9 9 10 8 7 7 7 8
6 6 8 10 10 10 10 9 7 7 7 7 6 5 4 4 4 4 5 5 4 5 6 7 7 7 6 7 8 9 6 7 9 10 10 9 8 9 9 7 8 8 8
6 7 8 8 9 9 9 9 8 7 7 6 5 4 4 4 5 5 5 5 5 6 7 7 6 7 7 7 9 10 6 7 8 7 8 10 9 8 7 7 7 8 8
7 7 7 7 8 8 8 8 7 7 6 5 4 4 4 5 6 6 6 5 6 7 7 8 8 8 9 8 11 13 7 7 7 7 7 4 4 6 7 7 7 9 8
6 7 6 6 7 8 8 8 7 6 5 4 4 5 4 6 6 5 5 6 6 8 8 8 9 7 6 7 9 13 14 10 7 8 7 4 3 5 7 7 10 10 8
4 5 5 5 6 6 7 7 6 4 4 4 5 4 5 5 6 6 7 7 7 8 7 6 6 4 3 3 8 11 13 13 9 8 10 10 11 10 9 14 15 11 8
1 3 5 5 5 5 5 5 4 4 4 5 5 5 6 7 7 7 8 8 7 6 5 5 5 5 4 3 1 2 5 9 10 9 10 12 15 13 12 11 9 8 9
4 2 2 3 4 5 5 5 4 4 4 5 5 6 8 8 8 8 8 9 8 7 7 6 5 5 6 3 2 3 5 5 4 5 7 8 8 7 7 7 7 7 7
6 5 3 1 1 3 4 4 3 4 4 5 6 7 7 7 7 7 7 12 13 13 14 14 11 8 8 8 7 8 8 7 5 4 8 9 8 8 7 6 6 6 7
Wind_Direction
129 128 130 128 127 127 126 127 127 133 148 132 139 144 129 97 118 132 115 97 46 27 331 335 350 315 322 353 336 332 317 297 274 278 285 274 261 246 230 224 228 234 237
135 140 143 141 139 139 136 140 149 155 166 122 86 98 26 298 214 81 123 120 78 353 320 19 331 342 343 306 285 294 298 300 306 297 296 296 289 283 254 223 218 225 236
154 158 157 154 151 152 159 165 160 152 155 126 193 301 51 295 332 70 139 106 44 320 343 333 324 335 312 317 343 309 297 299 306 295 286 294 302 327 315 319 277 211 207
160 163 164 167 166 167 172 159 153 152 152 164 252 291 278 291 312 330 54 58 312 277 273 284 304 326 322 319 311 1 342 315 302 299 289 278 295 299 309 313 305 273 236
169 172 172 173 177 177 172 162 158 158 164 184 228 280 311 335 358 10 355 328 277 258 240 227 246 313 300 310 327 324 315 309 302 307 311 310 301 269 263 285 296 295 269
173 172 172 172 180 180 174 166 158 158 166 195 225 237 306 336 328 319 302 292 288 279 273 237 110 295 299 316 315 307 295 286 294 300 298 297 293 287 277 277 284 283 278
173 171 176 176 180 183 180 166 152 160 179 194 207 222 291 296 269 265 292 315 311 323 36 28 10 316 306 295 285 285 282 283 283 282 277 281 290 292 287 286 289 294 291
172 174 175 177 184 184 173 156 150 164 179 187 174 174 252 278 307 10 352 327 316 331 358 332 301 289 288 289 295 293 282 275 272 272 271 274 278 283 285 279 284 291 293
179 179 179 182 180 168 156 152 145 155 171 179 152 196 221 256 313 328 289 292 331 319 340 338 316 298 286 281 282 276 280 283 277 274 274 264 266 270 271 273 269 270 279
182 180 174 171 152 144 139 137 136 147 164 199 209 221 191 229 253 272 301 311 300 296 300 295 296 295 288 280 274 273 272 274 271 262 261 265 264 272 277 272 269 264 267
182 171 156 145 139 143 142 143 149 161 180 206 200 238 256 270 276 268 269 275 281 291 289 285 286 287 285 279 273 271 271 272 273 275 272 267 262 262 272 278 275 268 268
172 158 148 141 148 156 159 160 166 176 185 193 185 200 223 245 261 273 279 284 281 278 281 283 287 287 287 287 282 281 283 279 278 275 275 275 273 265 257 260 268 270 267
162 151 144 149 158 162 164 166 176 185 189 185 183 199 214 233 247 264 272 277 279 279 282 284 285 286 287 286 282 278 278 278 278 278 276 274 272 271 264 259 261 266 272
153 151 146 152 159 160 158 169 186 190 190 186 197 208 218 237 253 263 268 271 275 276 274 275 278 282 283 281 279 279 279 278 278 278 276 274 268 266 267 265 257 259 263
160 159 158 158 160 162 164 179 187 179 181 196 226 229 227 236 247 255 260 265 269 277 281 287 287 284 280 280 292 290 290 296 296 290 282 276 275 269 261 264 262 270 272
171 168 165 163 166 171 176 183 183 177 175 199 231 237 234 247 252 256 255 259 263 271 277 280 284 284 288 304 290 282 297 294 289 287 283 282 274 264 249 246 248 249 254
178 173 170 169 168 174 175 178 179 181 186 197 221 233 233 245 253 266 274 276 279 281 280 279 279 279 281 266 246 242 267 280 279 279 278 281 281 293 282 260 250 248 247
182 172 171 168 170 172 173 178 187 187 194 203 216 224 230 244 251 257 264 267 273 276 277 277 278 277 278 263 243 237 251 269 270 268 267 267 271 277 280 283 276 264 255
168 163 173 176 172 172 174 176 193 195 201 210 213 222 230 244 254 261 264 268 270 272 273 275 272 271 271 253 237 227 259 267 271 269 269 267 266 263 257 259 267 270 269
159 164 177 171 164 171 172 176 192 202 210 215 214 220 225 239 252 259 261 265 266 269 273 274 273 274 274 257 232 217 250 269 276 278 272 267 264 261 246 250 261 267 270
162 166 174 169 168 168 167 180 197 206 209 212 212 218 224 233 242 245 245 250 258 267 271 274 272 267 261 250 229 217 235 259 276 286 290 293 293 258 246 247 256 262 275
173 175 173 169 164 166 171 187 203 206 205 210 220 227 229 247 258 250 251 251 256 264 265 264 265 261 250 238 229 218 222 241 262 274 281 289 293 271 257 251 254 260 267
169 169 168 165 162 168 177 195 200 198 208 218 228 237 243 245 253 258 260 256 251 255 261 268 275 278 270 240 230 222 226 233 243 264 278 287 278 268 257 248 248 250 247
141 157 158 168 172 174 183 191 186 190 208 224 233 241 246 247 245 242 251 257 259 260 263 272 281 290 288 279 228 219 234 238 243 257 274 273 263 255 255 261 245 231 235
30 52 133 171 178 175 181 184 184 196 217 230 239 248 253 253 250 245 243 247 249 251 254 263 269 278 281 276 207 265 286 296 318 314 287 280 274 262 248 242 240 236 229
25 26 22 1 216 182 182 184 187 201 227 242 247 254 258 258 258 255 254 241 237 242 232 232 241 256 257 259 251 253 258 263 269 275 271 273 273 271 269 262 255 243 236